G1 CYXU-CYXU

Flight info

Callsign G1
Flight time N/A
Altitude 1900
Route CYXU/27 CIRCUITS
Aircraft F16

Departure

Time 2026-04-25 22:37
Airport London International Airport (CYXU)

Arrival

Time N/A
Airport London International Airport (CYXU)
Time Latitude Longitude Altitude Speed Heading
2026-04-25 22:27 43.02962 -81.14938 899 ft 0 kts 219°
2026-04-25 22:31 43.02925 -81.14931 899 ft 0 kts 134°
2026-04-25 22:31 43.02922 -81.14926 899 ft 0 kts 50°
2026-04-25 22:31 43.02939 -81.14911 899 ft 7 kts
2026-04-25 22:32 43.02953 -81.14908 898 ft 0 kts 53°
2026-04-25 22:32 43.02955 -81.14906 898 ft 0 kts 52°
2026-04-25 22:33 43.02969 -81.14881 898 ft 6 kts 65°
2026-04-25 22:33 43.02960 -81.14801 897 ft 12 kts 135°
2026-04-25 22:33 43.02900 -81.14725 899 ft 16 kts 137°
2026-04-25 22:33 43.02810 -81.14618 899 ft 18 kts 137°
2026-04-25 22:34 43.02714 -81.14501 901 ft 18 kts 139°
2026-04-25 22:34 43.02639 -81.14413 901 ft 13 kts 139°
2026-04-25 22:34 43.02551 -81.14308 899 ft 17 kts 139°
2026-04-25 22:34 43.02467 -81.14207 898 ft 16 kts 137°
2026-04-25 22:35 43.02389 -81.14113 896 ft 11 kts 137°
2026-04-25 22:35 43.02362 -81.14079 896 ft 16 kts 143°
2026-04-25 22:35 43.02322 -81.13962 896 ft 14 kts 60°
2026-04-25 22:35 43.02394 -81.13880 895 ft 13 kts 12°
2026-04-25 22:36 43.02493 -81.13920 895 ft 27 kts 314°
2026-04-25 22:36 43.02831 -81.14355 906 ft 104 kts 320°
2026-04-25 22:36 43.03261 -81.14875 981 ft 142 kts 317°
2026-04-25 22:36 43.04143 -81.15936 1223 ft 195 kts 319°
2026-04-25 22:37 43.05451 -81.16548 1402 ft 221 kts 22°
2026-04-25 22:37 43.05704 -81.14840 1721 ft 222 kts 138°
2026-04-25 22:37 43.04504 -81.13434 1994 ft 231 kts 143°
2026-04-25 22:37 43.03247 -81.12145 2508 ft 218 kts 143°
2026-04-25 22:38 43.02009 -81.10898 2640 ft 224 kts 144°
2026-04-25 22:38 43.00695 -81.09931 2221 ft 225 kts 199°
2026-04-25 22:38 43.00426 -81.11625 1561 ft 210 kts 317°
2026-04-25 22:38 43.01500 -81.12767 1123 ft 178 kts 319°
2026-04-25 22:39 43.02378 -81.13815 913 ft 155 kts 318°
2026-04-25 22:39 43.03183 -81.14797 1008 ft 169 kts 317°
2026-04-25 22:39 43.04166 -81.15959 1314 ft 207 kts 318°
2026-04-25 22:39 43.05422 -81.16877 1539 ft 210 kts
2026-04-25 22:40 43.06216 -81.15430 1463 ft 216 kts 103°
2026-04-25 22:40 43.05337 -81.13781 1627 ft 215 kts 135°
2026-04-25 22:40 43.04243 -81.12346 1804 ft 223 kts 137°
2026-04-25 22:40 43.03088 -81.10882 1977 ft 225 kts 138°
2026-04-25 22:41 43.01936 -81.09534 2313 ft 214 kts 141°
2026-04-25 22:41 43.00557 -81.08985 2264 ft 226 kts 211°
2026-04-25 22:41 43.00223 -81.10869 1835 ft 210 kts 284°
2026-04-25 22:41 43.01026 -81.12200 1305 ft 176 kts 321°
2026-04-25 22:42 43.02013 -81.13356 992 ft 195 kts 318°
2026-04-25 22:42 43.03030 -81.14584 910 ft 192 kts 318°
2026-04-25 22:42 43.04099 -81.15889 1103 ft 222 kts 317°
2026-04-25 22:42 43.05390 -81.16870 1510 ft 206 kts
2026-04-25 22:43 43.06366 -81.15727 1638 ft 199 kts 88°
2026-04-25 22:43 43.05660 -81.14239 1714 ft 192 kts 134°
2026-04-25 22:43 43.04579 -81.12747 1850 ft 244 kts 135°
2026-04-25 22:43 43.03406 -81.10991 2693 ft 247 kts 129°
2026-04-25 22:44 43.02297 -81.09064 3136 ft 268 kts 130°
2026-04-25 22:44 43.00902 -81.09722 1650 ft 310 kts 268°
2026-04-25 22:44 43.01280 -81.12423 1414 ft 265 kts 310°
2026-04-25 22:44 43.02562 -81.14001 899 ft 232 kts 319°
2026-04-25 22:45 43.03690 -81.15340 1003 ft 185 kts 317°
2026-04-25 22:45 43.04657 -81.16492 1153 ft 192 kts 326°
2026-04-25 22:45 43.06021 -81.16440 1276 ft 229 kts 41°
2026-04-25 22:45 43.05988 -81.14530 1723 ft 239 kts 144°
2026-04-25 22:46 43.04675 -81.13021 1225 ft 272 kts 141°
2026-04-25 22:46 43.03125 -81.11458 1858 ft 282 kts 144°
2026-04-25 22:46 43.01503 -81.09904 2206 ft 283 kts 147°
2026-04-25 22:46 42.99947 -81.10090 1781 ft 263 kts 260°
2026-04-25 22:47 43.00660 -81.11775 1473 ft 197 kts 327°
2026-04-25 22:47 43.01641 -81.12895 1045 ft 190 kts 319°
2026-04-25 22:47 43.02512 -81.13934 897 ft 137 kts 319°
2026-04-25 22:47 43.03280 -81.14896 909 ft 166 kts 317°
2026-04-25 22:48 43.04154 -81.15947 1090 ft 170 kts 318°
2026-04-25 22:48 43.04861 -81.15585 1215 ft 163 kts 114°
2026-04-25 22:48 43.04040 -81.14236 1351 ft 213 kts 135°
2026-04-25 22:48 43.02900 -81.12648 1576 ft 253 kts 135°
2026-04-25 22:49 43.01511 -81.11476 1887 ft 230 kts 210°
2026-04-25 22:49 43.01680 -81.13035 1104 ft 183 kts 327°
2026-04-25 22:49 43.02624 -81.14090 907 ft 161 kts 319°
2026-04-25 22:49 43.03495 -81.15136 907 ft 180 kts 318°
2026-04-25 22:50 43.04460 -81.16293 1062 ft 183 kts 331°
2026-04-25 22:50 43.05608 -81.15956 1489 ft 199 kts 55°
2026-04-25 22:50 43.05434 -81.14184 1573 ft 221 kts 134°
2026-04-25 22:50 43.04339 -81.12591 1941 ft 235 kts 129°
2026-04-25 22:51 43.03303 -81.10811 2345 ft 235 kts 129°
2026-04-25 22:51 43.02296 -81.09185 2662 ft 217 kts 133°
2026-04-25 22:51 43.01247 -81.07724 2698 ft 216 kts 136°
2026-04-25 22:51 42.99947 -81.07245 2560 ft 213 kts 218°
2026-04-25 22:52 42.99649 -81.09127 2276 ft 215 kts 273°
2026-04-25 22:52 43.00140 -81.11039 1662 ft 225 kts 313°
2026-04-25 22:52 43.01265 -81.12434 1148 ft 207 kts 319°
2026-04-25 22:52 43.01936 -81.13253 967 ft 178 kts 318°
2026-04-25 22:53 43.03092 -81.14652 937 ft 174 kts 317°